TimeCET,TemperatureF,Dew PointF,Humidity,Sea Level PressureIn,VisibilityMPH,Wind Direction,Wind SpeedMPH,Gust SpeedMPH,PrecipitationIn,Events,Conditions,WindDirDegrees,DateUTC
12:00 AM,59.0,59.0,100,29.77,3.1,SW,16.1,-,N/A,Rain,Light Rain Showers,220,2013-03-26 23:00:00
1:00 AM,59.0,59.0,100,29.74,5.6,SW,12.7,-,N/A,,Mostly Cloudy,230,2013-03-27 00:00:00
1:40 AM,59.0,59.0,100,29.74,2.5,WSW,12.7,24.2,N/A,Rain,Rain Showers,240,2013-03-27 00:40:00
2:00 AM,60.8,60.8,100,29.74,4.3,WSW,18.4,-,N/A,,Mostly Cloudy,250,2013-03-27 01:00:00
3:00 AM,59.0,59.0,100,29.74,3.7,WSW,15.0,-,N/A,Rain,Light Rain,250,2013-03-27 02:00:00
4:00 AM,59.0,59.0,100,29.71,4.3,WSW,11.5,-,N/A,,Mostly Cloudy,250,2013-03-27 03:00:00
5:00 AM,59.0,59.0,100,29.71,6.2,WSW,10.4,-,N/A,,Mostly Cloudy,240,2013-03-27 04:00:00
6:00 AM,59.0,59.0,100,29.71,6.2,SW,10.4,-,N/A,,Mostly Cloudy,230,2013-03-27 05:00:00
7:00 AM,59.0,59.0,100,29.71,4.3,SW,9.2,-,N/A,,Mostly Cloudy,230,2013-03-27 06:00:00
8:00 AM,57.2,57.2,100,29.74,4.3,West,9.2,-,N/A,,Scattered Clouds,260,2013-03-27 07:00:00
9:00 AM,60.8,59.0,94,29.74,4.3,West,9.2,-,N/A,,Scattered Clouds,260,2013-03-27 08:00:00
10:00 AM,62.6,59.0,88,29.74,4.3,WSW,15.0,-,N/A,,Scattered Clouds,240,2013-03-27 09:00:00
11:00 AM,62.6,57.2,82,29.74,5.0,WSW,13.8,-,N/A,,Mostly Cloudy,240,2013-03-27 10:00:00
12:00 PM,64.4,57.2,77,29.74,5.0,WSW,16.1,-,N/A,,Mostly Cloudy,240,2013-03-27 11:00:00
1:00 PM,68.0,57.2,68,29.74,6.2,WSW,17.3,-,N/A,,Mostly Cloudy,240,2013-03-27 12:00:00
2:00 PM,68.0,57.2,68,29.74,6.2,WSW,18.4,-,N/A,,Mostly Cloudy,250,2013-03-27 13:00:00
4:00 PM,62.6,57.2,82,29.74,6.2,WSW,17.3,-,N/A,Rain,Light Rain Showers,250,2013-03-27 15:00:00
4:23 PM,64.4,57.2,77,29.71,6.2,WSW,13.8,-,N/A,,Mostly Cloudy,240,2013-03-27 15:23:00
5:00 PM,66.2,57.2,73,29.71,6.2,WSW,15.0,-,N/A,,Mostly Cloudy,240,2013-03-27 16:00:00
5:10 PM,64.4,57.2,77,29.71,2.5,WSW,13.8,-,N/A,Rain,Light Rain Showers,240,2013-03-27 16:10:00
5:37 PM,62.6,59.0,88,29.71,6.2,WSW,13.8,-,N/A,,Scattered Clouds,240,2013-03-27 16:37:00
6:00 PM,62.6,59.0,88,29.74,6.2,SW,15.0,-,N/A,,Scattered Clouds,230,2013-03-27 17:00:00
6:34 PM,62.6,59.0,88,29.74,2.2,SW,15.0,-,N/A,Rain,Light Rain Showers,230,2013-03-27 17:34:00
6:52 PM,60.8,59.0,94,29.74,6.2,WSW,11.5,-,N/A,,Scattered Clouds,240,2013-03-27 17:52:00
7:00 PM,60.8,59.0,94,29.74,6.2,WSW,11.5,-,N/A,,Scattered Clouds,240,2013-03-27 18:00:00
8:00 PM,60.8,59.0,94,29.74,6.2,SW,9.2,-,N/A,,Scattered Clouds,230,2013-03-27 19:00:00
9:00 PM,60.8,59.0,94,29.74,6.2,SW,6.9,-,N/A,,Scattered Clouds,220,2013-03-27 20:00:00
10:00 PM,59.0,59.0,100,29.77,6.2,SSW,5.8,-,N/A,,Partly Cloudy,200,2013-03-27 21:00:00
11:00 PM,59.0,59.0,100,29.77,6.2,South,6.9,-,N/A,,Partly Cloudy,190,2013-03-27 22:00:00